Location: Zeiss-Gro�planetarium Berlin
(52.5430°N, 13.4281°E)
Time: 22:53:29
(UTC+01:00)

ISS - Pass Details

Date: 26 September 2020
Orbit: 417 x 420 km, 51.6° (Epoch: 27 October)

Event Time Altitude Azimuth Distance (km) Brightness Sun altitude
Rises 20:14:01 0° 266° (W) 2,367 1.6 -12.8°
Reaches altitude 10° 20:16:06 10° 265° (W) 1,504 0.3 -13.1°
Maximum altitude 20:19:29 78° 179° (S) 435 -3.8 -13.6°
Enters shadow 20:21:09 28° 96° (E) 834 -2.8 -13.9°
